Time,TemperatureF,DewpointF,PressureIn,WindDirection,WindDirectionDegrees,WindSpeedMPH,WindSpeedGustMPH,Humidity,HourlyPrecipIn,Conditions,Clouds,dailyrainin,SoftwareType,DateUTC
2013-05-12 00:01:00,40.9,35.8,30.02,West,262,3.0,4.0,82,0.00,,,0.02,WUHU216DAVISVP2,2013-05-12 04:01:00,
2013-05-12 00:14:00,39.7,35.5,30.03,WSW,249,2.0,4.0,85,0.00,,,0.00,WUHU216DAVISVP2,2013-05-12 04:14:00,
2013-05-12 00:19:00,39.2,35.3,30.03,WSW,252,1.0,4.0,86,0.00,,,0.00,WUHU216DAVISVP2,2013-05-12 04:19:00,
2013-05-12 00:36:00,38.7,35.4,30.03,West,259,3.0,5.0,88,0.00,,,0.00,WUHU216DAVISVP2,2013-05-12 04:36:00,
2013-05-12 00:41:00,38.8,35.5,30.03,West,263,1.0,5.0,88,0.00,,,0.00,WUHU216DAVISVP2,2013-05-12 04:41:00,
2013-05-12 00:58:00,40.0,36.1,30.03,West,264,2.0,7.0,86,0.00,,,0.00,WUHU216DAVISVP2,2013-05-12 04:58:00,
2013-05-12 01:03:00,40.3,36.1,30.03,West,281,2.0,7.0,85,0.00,,,0.00,WUHU216DAVISVP2,2013-05-12 05:03:00,
2013-05-12 01:08:00,40.4,36.2,30.04,West,271,0.0,7.0,85,0.00,,,0.00,WUHU216DAVISVP2,2013-05-12 05:08:00,
2013-05-12 01:20:00,39.8,35.6,30.04,WSW,248,3.0,4.0,85,0.00,,,0.00,WUHU216DAVISVP2,2013-05-12 05:20:00,
2013-05-12 01:25:00,39.3,35.4,30.03,WSW,243,2.0,3.0,86,0.00,,,0.00,WUHU216DAVISVP2,2013-05-12 05:25:00,
2013-05-12 01:30:00,38.6,34.7,30.03,WSW,249,2.0,3.0,86,0.00,,,0.00,WUHU216DAVISVP2,2013-05-12 05:30:00,
2013-05-12 01:42:00,37.6,34.6,30.03,WSW,245,2.0,3.0,89,0.00,,,0.00,WUHU216DAVISVP2,2013-05-12 05:42:00,
2013-05-12 01:47:00,37.5,34.8,30.04,WSW,249,2.0,2.0,90,0.00,,,0.00,WUHU216DAVISVP2,2013-05-12 05:47:00,
2013-05-12 01:52:00,37.4,34.7,30.03,WSW,250,1.0,2.0,90,0.00,,,0.00,WUHU216DAVISVP2,2013-05-12 05:52:00,
2013-05-12 02:04:00,37.4,35.0,30.03,WSW,245,2.0,2.0,91,0.00,,,0.00,WUHU216DAVISVP2,2013-05-12 06:04:00,
2013-05-12 02:09:00,37.3,34.9,30.03,WSW,246,2.0,2.0,91,0.00,,,0.00,WUHU216DAVISVP2,2013-05-12 06:09:00,
2013-05-12 02:14:00,36.9,34.2,30.03,WSW,253,1.0,2.0,90,0.00,,,0.00,WUHU216DAVISVP2,2013-05-12 06:14:00,
2013-05-12 02:26:00,36.9,34.5,30.03,West,259,2.0,2.0,91,0.00,,,0.00,WUHU216DAVISVP2,2013-05-12 06:26:00,
2013-05-12 02:31:00,36.9,34.5,30.03,WSW,255,2.0,3.0,91,0.00,,,0.00,WUHU216DAVISVP2,2013-05-12 06:31:00,
2013-05-12 02:36:00,36.8,34.4,30.03,WSW,250,3.0,3.0,91,0.00,,,0.00,WUHU216DAVISVP2,2013-05-12 06:36:00,
2013-05-12 02:48:00,37.2,35.0,30.03,West,259,4.0,6.0,92,0.00,,,0.00,WUHU216DAVISVP2,2013-05-12 06:48:00,
2013-05-12 02:53:00,37.7,35.3,30.03,West,272,4.0,6.0,91,0.00,,,0.00,WUHU216DAVISVP2,2013-05-12 06:53:00,
2013-05-12 02:58:00,38.4,35.4,30.03,West,273,3.0,7.0,89,0.00,,,0.00,WUHU216DAVISVP2,2013-05-12 06:58:00,
2013-05-12 03:09:00,39.8,35.1,30.03,WSW,246,2.0,7.0,83,0.00,,,0.00,WUHU216DAVISVP2,2013-05-12 07:09:00,
2013-05-12 03:14:00,39.9,34.9,30.03,West,262,4.0,7.0,82,0.00,,,0.00,WUHU216DAVISVP2,2013-05-12 07:14:00,
2013-05-12 03:31:00,40.5,34.5,30.03,West,263,6.0,10.0,79,0.00,,,0.00,WUHU216DAVISVP2,2013-05-12 07:31:00,
2013-05-12 03:36:00,40.4,34.4,30.03,West,272,5.0,10.0,79,0.00,,,0.00,WUHU216DAVISVP2,2013-05-12 07:36:00,
2013-05-12 03:41:00,40.4,34.4,30.03,WSW,257,6.0,9.0,79,0.00,,,0.00,WUHU216DAVISVP2,2013-05-12 07:41:00,
2013-05-12 03:53:00,40.1,34.1,30.03,WSW,255,4.0,8.0,79,0.00,,,0.00,WUHU216DAVISVP2,2013-05-12 07:53:00,
2013-05-12 03:58:00,39.5,34.2,30.03,WSW,252,5.0,8.0,81,0.00,,,0.00,WUHU216DAVISVP2,2013-05-12 07:58:00,
2013-05-12 04:15:00,38.6,33.9,30.03,WSW,257,3.0,6.0,83,0.00,,,0.00,WUHU216DAVISVP2,2013-05-12 08:15:00,
2013-05-12 04:20:00,38.4,33.7,30.03,West,271,3.0,6.0,83,0.00,,,0.00,WUHU216DAVISVP2,2013-05-12 08:20:00,
2013-05-12 04:25:00,38.5,33.8,30.03,West,259,2.0,5.0,83,0.00,,,0.00,WUHU216DAVISVP2,2013-05-12 08:25:00,
2013-05-12 04:37:00,38.8,33.8,30.03,West,278,2.0,6.0,82,0.00,,,0.00,WUHU216DAVISVP2,2013-05-12 08:37:00,
2013-05-12 04:42:00,38.8,33.8,30.03,West,270,5.0,6.0,82,0.00,,,0.00,WUHU216DAVISVP2,2013-05-12 08:42:00,
2013-05-12 04:47:00,38.7,33.7,30.03,WSW,255,3.0,6.0,82,0.00,,,0.00,WUHU216DAVISVP2,2013-05-12 08:47:00,
2013-05-12 04:59:00,38.4,33.4,30.03,West,273,3.0,7.0,82,0.00,,,0.00,WUHU216DAVISVP2,2013-05-12 08:59:00,
2013-05-12 05:04:00,38.1,33.1,30.03,West,259,3.0,6.0,82,0.00,,,0.00,WUHU216DAVISVP2,2013-05-12 09:04:00,
2013-05-12 05:09:00,38.0,33.0,30.03,WSW,255,3.0,6.0,82,0.00,,,0.00,WUHU216DAVISVP2,2013-05-12 09:09:00,
2013-05-12 05:21:00,37.6,32.9,30.03,WSW,257,3.0,6.0,83,0.00,,,0.00,WUHU216DAVISVP2,2013-05-12 09:21:00,
2013-05-12 05:26:00,37.5,32.8,30.03,West,268,3.0,6.0,83,0.00,,,0.00,WUHU216DAVISVP2,2013-05-12 09:26:00,
2013-05-12 05:31:00,37.3,32.6,30.03,West,259,4.0,6.0,83,0.00,,,0.00,WUHU216DAVISVP2,2013-05-12 09:31:00,
2013-05-12 05:43:00,36.9,32.8,30.04,West,264,4.0,6.0,85,0.00,,,0.00,WUHU216DAVISVP2,2013-05-12 09:43:00,
2013-05-12 05:48:00,37.1,32.7,30.04,West,269,4.0,5.0,84,0.00,,,0.00,WUHU216DAVISVP2,2013-05-12 09:48:00,
2013-05-12 05:53:00,37.6,32.6,30.04,West,263,2.0,5.0,82,0.00,,,0.00,WUHU216DAVISVP2,2013-05-12 09:53:00,
2013-05-12 06:05:00,37.9,32.9,30.04,West,260,3.0,6.0,82,0.00,,,0.00,WUHU216DAVISVP2,2013-05-12 10:05:00,
2013-05-12 06:10:00,37.7,32.7,30.04,West,274,2.0,6.0,82,0.00,,,0.00,WUHU216DAVISVP2,2013-05-12 10:10:00,
2013-05-12 06:15:00,37.6,32.6,30.04,WSW,256,3.0,6.0,82,0.00,,,0.00,WUHU216DAVISVP2,2013-05-12 10:15:00,
2013-05-12 06:27:00,36.7,32.3,30.04,WSW,253,3.0,5.0,84,0.00,,,0.00,WUHU216DAVISVP2,2013-05-12 10:27:00,
2013-05-12 06:32:00,36.4,32.0,30.04,WSW,255,3.0,5.0,84,0.00,,,0.00,WUHU216DAVISVP2,2013-05-12 10:32:00,
2013-05-12 06:37:00,36.3,32.2,30.04,WSW,257,4.0,5.0,85,0.00,,,0.00,WUHU216DAVISVP2,2013-05-12 10:37:00,
2013-05-12 06:49:00,36.5,32.4,30.05,West,263,3.0,5.0,85,0.00,,,0.00,WUHU216DAVISVP2,2013-05-12 10:49:00,
2013-05-12 06:53:00,36.5,32.4,30.05,WSW,250,4.0,5.0,85,0.00,,,0.00,WUHU216DAVISVP2,2013-05-12 10:53:00,
2013-05-12 06:58:00,36.6,32.5,30.05,WSW,250,2.0,5.0,85,0.00,,,0.00,WUHU216DAVISVP2,2013-05-12 10:58:00,
2013-05-12 07:10:00,37.1,33.3,30.05,WSW,255,4.0,5.0,86,0.00,,,0.00,WUHU216DAVISVP2,2013-05-12 11:10:00,
2013-05-12 07:15:00,37.5,33.4,30.05,WSW,250,2.0,5.0,85,0.00,,,0.00,WUHU216DAVISVP2,2013-05-12 11:15:00,
2013-05-12 07:20:00,37.8,33.7,30.05,West,278,2.0,5.0,85,0.00,,,0.00,WUHU216DAVISVP2,2013-05-12 11:20:00,
2013-05-12 07:32:00,39.1,34.1,30.05,WNW,288,3.0,8.0,82,0.00,,,0.00,WUHU216DAVISVP2,2013-05-12 11:32:00,
2013-05-12 07:37:00,39.4,34.4,30.05,West,271,1.0,8.0,82,0.00,,,0.00,WUHU216DAVISVP2,2013-05-12 11:37:00,
2013-05-12 07:42:00,39.6,34.2,30.06,WNW,285,4.0,8.0,81,0.00,,,0.00,WUHU216DAVISVP2,2013-05-12 11:42:00,
2013-05-12 07:54:00,40.2,34.5,30.06,West,276,6.0,9.0,80,0.00,,,0.00,WUHU216DAVISVP2,2013-05-12 11:54:00,
2013-05-12 07:59:00,40.4,34.7,30.06,West,278,1.0,10.0,80,0.00,,,0.00,WUHU216DAVISVP2,2013-05-12 11:59:00,
2013-05-12 08:04:00,40.6,34.3,30.06,WSW,240,1.0,10.0,78,0.00,,,0.00,WUHU216DAVISVP2,2013-05-12 12:04:00,
2013-05-12 08:16:00,41.1,34.8,30.06,WNW,287,4.0,10.0,78,0.00,,,0.00,WUHU216DAVISVP2,2013-05-12 12:16:00,
2013-05-12 08:21:00,41.3,35.0,30.06,WSW,238,3.0,11.0,78,0.00,,,0.00,WUHU216DAVISVP2,2013-05-12 12:21:00,
2013-05-12 08:26:00,41.5,34.5,30.06,North,354,2.0,11.0,76,0.00,,,0.00,WUHU216DAVISVP2,2013-05-12 12:26:00,
2013-05-12 08:38:00,42.0,34.6,30.06,West,262,2.0,11.0,75,0.00,,,0.00,WUHU216DAVISVP2,2013-05-12 12:38:00,
2013-05-12 08:43:00,42.1,35.1,30.07,West,263,12.0,12.0,76,0.00,,,0.00,WUHU216DAVISVP2,2013-05-12 12:43:00,
2013-05-12 08:48:00,42.0,34.7,30.07,West,264,3.0,13.0,75,0.00,,,0.00,WUHU216DAVISVP2,2013-05-12 12:48:00,
2013-05-12 09:00:00,42.1,35.5,30.07,NW,311,5.0,13.0,77,0.00,,,0.00,WUHU216DAVISVP2,2013-05-12 13:00:00,
2013-05-12 09:05:00,42.2,35.6,30.07,WSW,245,4.0,13.0,77,0.00,,,0.00,WUHU216DAVISVP2,2013-05-12 13:05:00,
2013-05-12 09:22:00,42.9,34.9,30.07,WNW,287,7.0,14.0,73,0.00,,,0.00,WUHU216DAVISVP2,2013-05-12 13:22:00,
2013-05-12 09:27:00,43.3,36.0,30.08,WNW,299,5.0,14.0,75,0.00,,,0.00,WUHU216DAVISVP2,2013-05-12 13:27:00,
2013-05-12 09:32:00,43.1,33.0,30.08,WNW,302,12.0,22.0,67,0.00,,,0.00,WUHU216DAVISVP2,2013-05-12 13:32:00,
2013-05-12 09:44:00,42.5,31.6,30.08,WNW,302,6.0,22.0,65,0.00,,,0.00,WUHU216DAVISVP2,2013-05-12 13:44:00,
2013-05-12 09:49:00,42.9,33.2,30.08,WSW,257,3.0,16.0,68,0.00,,,0.00,WUHU216DAVISVP2,2013-05-12 13:49:00,
2013-05-12 09:54:00,43.0,32.1,30.08,WNW,285,13.0,19.0,65,0.00,,,0.00,WUHU216DAVISVP2,2013-05-12 13:54:00,
2013-05-12 10:06:00,43.2,31.1,30.08,NW,325,11.0,21.0,62,0.00,,,0.00,WUHU216DAVISVP2,2013-05-12 14:06:00,
2013-05-12 10:11:00,42.8,30.4,30.08,NW,311,12.0,21.0,61,0.00,,,0.00,WUHU216DAVISVP2,2013-05-12 14:11:00,
2013-05-12 10:28:00,44.0,33.1,30.09,NW,309,7.0,20.0,65,0.00,,,0.00,WUHU216DAVISVP2,2013-05-12 14:28:00,
2013-05-12 10:33:00,44.0,31.9,30.09,NW,311,9.0,19.0,62,0.00,,,0.00,WUHU216DAVISVP2,2013-05-12 14:33:00,
2013-05-12 10:38:00,44.0,33.1,30.09,WNW,302,12.0,24.0,65,0.00,,,0.00,WUHU216DAVISVP2,2013-05-12 14:38:00,
2013-05-12 10:49:00,43.7,32.4,30.09,NW,311,11.0,24.0,64,0.00,,,0.00,WUHU216DAVISVP2,2013-05-12 14:49:00,
2013-05-12 10:54:00,43.8,30.9,30.09,WNW,290,2.0,23.0,60,0.00,,,0.00,WUHU216DAVISVP2,2013-05-12 14:54:00,
2013-05-12 10:59:00,44.1,32.0,30.10,NW,307,16.0,23.0,62,0.00,,,0.00,WUHU216DAVISVP2,2013-05-12 14:59:00,
2013-05-12 11:11:00,44.2,32.0,30.10,NW,311,4.0,21.0,62,0.00,,,0.00,WUHU216DAVISVP2,2013-05-12 15:11:00,
2013-05-12 11:16:00,44.8,31.8,30.10,WNW,294,6.0,21.0,60,0.00,,,0.00,WUHU216DAVISVP2,2013-05-12 15:16:00,
2013-05-12 11:21:00,45.2,32.1,30.10,WNW,290,3.0,17.0,60,0.00,,,0.00,WUHU216DAVISVP2,2013-05-12 15:21:00,
2013-05-12 11:33:00,45.5,30.7,30.10,West,280,5.0,21.0,56,0.00,,,0.00,WUHU216DAVISVP2,2013-05-12 15:33:00,
2013-05-12 11:38:00,45.6,33.0,30.10,WNW,300,9.0,21.0,61,0.00,,,0.00,WUHU216DAVISVP2,2013-05-12 15:38:00,
2013-05-12 11:43:00,45.6,32.6,30.10,West,276,5.0,21.0,60,0.00,,,0.00,WUHU216DAVISVP2,2013-05-12 15:43:00,
2013-05-12 11:55:00,45.2,31.8,30.10,West,270,12.0,22.0,59,0.00,,,0.00,WUHU216DAVISVP2,2013-05-12 15:55:00,
2013-05-12 12:00:00,45.3,31.9,30.11,NW,305,5.0,22.0,59,0.00,,,0.00,WUHU216DAVISVP2,2013-05-12 16:00:00,
2013-05-12 12:05:00,45.2,31.4,30.11,WNW,284,5.0,21.0,58,0.00,,,0.00,WUHU216DAVISVP2,2013-05-12 16:05:00,
2013-05-12 12:17:00,46.0,31.7,30.11,NW,321,10.0,17.0,57,0.00,,,0.00,WUHU216DAVISVP2,2013-05-12 16:17:00,
2013-05-12 12:22:00,45.9,31.1,30.11,West,271,7.0,17.0,56,0.00,,,0.00,WUHU216DAVISVP2,2013-05-12 16:22:00,
2013-05-12 12:39:00,46.1,31.3,30.11,West,280,7.0,22.0,56,0.00,,,0.00,WUHU216DAVISVP2,2013-05-12 16:39:00,
2013-05-12 12:44:00,45.6,31.3,30.12,WNW,286,11.0,22.0,57,0.00,,,0.00,WUHU216DAVISVP2,2013-05-12 16:44:00,
2013-05-12 12:49:00,45.9,32.4,30.12,NW,318,8.0,17.0,59,0.00,,,0.00,WUHU216DAVISVP2,2013-05-12 16:49:00,
2013-05-12 13:01:00,46.0,31.2,30.12,NW,324,9.0,20.0,56,0.00,,,0.00,WUHU216DAVISVP2,2013-05-12 17:01:00,
2013-05-12 13:06:00,46.3,31.5,30.12,West,260,14.0,20.0,56,0.00,,,0.00,WUHU216DAVISVP2,2013-05-12 17:06:00,
2013-05-12 13:11:00,46.6,31.8,30.12,NW,309,6.0,18.0,56,0.00,,,0.00,WUHU216DAVISVP2,2013-05-12 17:11:00,
2013-05-12 13:23:00,46.2,32.3,30.12,West,281,4.0,19.0,58,0.00,,,0.00,WUHU216DAVISVP2,2013-05-12 17:23:00,
2013-05-12 13:28:00,46.6,34.3,30.12,West,276,12.0,19.0,62,0.00,,,0.00,WUHU216DAVISVP2,2013-05-12 17:28:00,
2013-05-12 13:33:00,47.0,33.0,30.12,NNW,340,10.0,19.0,58,0.00,,,0.00,WUHU216DAVISVP2,2013-05-12 17:33:00,
2013-05-12 13:45:00,45.9,31.1,30.13,SW,231,3.0,21.0,56,0.00,,,0.00,WUHU216DAVISVP2,2013-05-12 17:45:00,
2013-05-12 13:50:00,46.6,31.3,30.13,WNW,283,8.0,21.0,55,0.00,,,0.00,WUHU216DAVISVP2,2013-05-12 17:50:00,
2013-05-12 13:55:00,46.8,32.4,30.13,WNW,296,8.0,21.0,57,0.00,,,0.00,WUHU216DAVISVP2,2013-05-12 17:55:00,
2013-05-12 14:07:00,46.7,32.3,30.13,WSW,252,2.0,21.0,57,0.00,,,0.00,WUHU216DAVISVP2,2013-05-12 18:07:00,
2013-05-12 14:12:00,46.9,31.6,30.13,WNW,290,2.0,21.0,55,0.00,,,0.00,WUHU216DAVISVP2,2013-05-12 18:12:00,
2013-05-12 14:17:00,46.8,32.9,30.13,NW,321,9.0,16.0,58,0.00,,,0.00,WUHU216DAVISVP2,2013-05-12 18:17:00,
2013-05-12 14:29:00,46.9,31.1,30.13,WSW,238,3.0,17.0,54,0.00,,,0.00,WUHU216DAVISVP2,2013-05-12 18:29:00,
2013-05-12 14:34:00,47.2,30.9,30.13,West,274,9.0,17.0,53,0.00,,,0.00,WUHU216DAVISVP2,2013-05-12 18:34:00,
2013-05-12 14:50:00,47.7,30.4,30.13,WNW,291,12.0,15.0,51,0.00,,,0.00,WUHU216DAVISVP2,2013-05-12 18:50:00,
2013-05-12 14:56:00,47.7,31.4,30.13,West,277,7.0,16.0,53,0.00,,,0.00,WUHU216DAVISVP2,2013-05-12 18:56:00,
2013-05-12 15:00:00,47.4,30.6,30.13,West,278,3.0,16.0,52,0.00,,,0.00,WUHU216DAVISVP2,2013-05-12 19:00:00,
2013-05-12 15:12:00,48.1,32.3,30.13,NW,309,8.0,16.0,54,0.00,,,0.00,WUHU216DAVISVP2,2013-05-12 19:12:00,
2013-05-12 15:17:00,48.5,31.7,30.13,NW,314,5.0,16.0,52,0.00,,,0.00,WUHU216DAVISVP2,2013-05-12 19:17:00,
2013-05-12 15:34:00,49.2,31.8,30.12,WNW,300,12.0,20.0,51,0.00,,,0.00,WUHU216DAVISVP2,2013-05-12 19:34:00,
2013-05-12 15:39:00,49.1,32.7,30.12,NW,323,7.0,20.0,53,0.00,,,0.00,WUHU216DAVISVP2,2013-05-12 19:39:00,
2013-05-12 15:56:00,48.7,30.9,30.12,West,264,3.0,15.0,50,0.00,,,0.00,WUHU216DAVISVP2,2013-05-12 19:56:00,
2013-05-12 16:01:00,49.5,31.1,30.12,NW,309,9.0,15.0,49,0.00,,,0.00,WUHU216DAVISVP2,2013-05-12 20:01:00,
2013-05-12 16:06:00,49.3,30.4,30.12,West,260,3.0,15.0,48,0.00,,,0.00,WUHU216DAVISVP2,2013-05-12 20:06:00,
2013-05-12 16:18:00,48.7,30.9,30.11,NW,309,13.0,16.0,50,0.00,,,0.00,WUHU216DAVISVP2,2013-05-12 20:18:00,
2013-05-12 16:23:00,49.0,31.1,30.12,NNW,328,10.0,16.0,50,0.00,,,0.00,WUHU216DAVISVP2,2013-05-12 20:23:00,
2013-05-12 16:40:00,49.9,30.9,30.11,NW,319,14.0,15.0,48,0.00,,,0.00,WUHU216DAVISVP2,2013-05-12 20:40:00,
2013-05-12 16:45:00,49.5,30.6,30.11,NNW,328,10.0,20.0,48,0.00,,,0.00,WUHU216DAVISVP2,2013-05-12 20:45:00,
2013-05-12 17:02:00,50.4,31.4,30.11,NW,316,10.0,21.0,48,0.00,,,0.00,WUHU216DAVISVP2,2013-05-12 21:02:00,
2013-05-12 17:07:00,50.6,31.0,30.11,NW,321,11.0,21.0,47,0.00,,,0.00,WUHU216DAVISVP2,2013-05-12 21:07:00,
2013-05-12 17:12:00,50.7,30.6,30.11,West,259,9.0,18.0,46,0.00,,,0.00,WUHU216DAVISVP2,2013-05-12 21:12:00,
2013-05-12 17:24:00,52.0,31.8,30.11,NW,322,14.0,18.0,46,0.00,,,0.00,WUHU216DAVISVP2,2013-05-12 21:24:00,
2013-05-12 17:29:00,51.3,30.6,30.10,NW,321,8.0,19.0,45,0.00,,,0.00,WUHU216DAVISVP2,2013-05-12 21:29:00,
2013-05-12 17:34:00,51.1,31.5,30.11,NW,316,8.0,19.0,47,0.00,,,0.00,WUHU216DAVISVP2,2013-05-12 21:34:00,
2013-05-12 17:46:00,51.3,30.6,30.10,WNW,283,2.0,16.0,45,0.00,,,0.00,WUHU216DAVISVP2,2013-05-12 21:46:00,
2013-05-12 17:51:00,51.7,30.9,30.10,West,278,9.0,12.0,45,0.00,,,0.00,WUHU216DAVISVP2,2013-05-12 21:51:00,
2013-05-12 18:08:00,52.0,30.1,30.10,SW,233,9.0,12.0,43,0.00,,,0.00,WUHU216DAVISVP2,2013-05-12 22:08:00,
2013-05-12 18:13:00,52.0,30.6,30.10,WNW,297,10.0,13.0,44,0.00,,,0.00,WUHU216DAVISVP2,2013-05-12 22:13:00,
2013-05-12 18:18:00,52.0,31.2,30.10,West,264,7.0,13.0,45,0.00,,,0.00,WUHU216DAVISVP2,2013-05-12 22:18:00,
2013-05-12 18:30:00,52.1,30.1,30.10,West,269,5.0,13.0,43,0.00,,,0.00,WUHU216DAVISVP2,2013-05-12 22:30:00,
2013-05-12 18:35:00,51.7,32.1,30.10,NW,307,4.0,12.0,47,0.00,,,0.00,WUHU216DAVISVP2,2013-05-12 22:35:00,
2013-05-12 18:40:00,51.6,30.9,30.10,West,273,5.0,12.0,45,0.00,,,0.00,WUHU216DAVISVP2,2013-05-12 22:40:00,
2013-05-12 18:52:00,51.6,30.8,30.10,West,273,8.0,13.0,45,0.00,,,0.00,WUHU216DAVISVP2,2013-05-12 22:52:00,
2013-05-12 18:57:00,51.7,31.5,30.10,West,274,5.0,13.0,46,0.00,,,0.00,WUHU216DAVISVP2,2013-05-12 22:57:00,
2013-05-12 19:13:00,50.5,31.5,30.10,NW,305,4.0,14.0,48,0.00,,,0.00,WUHU216DAVISVP2,2013-05-12 23:13:00,
2013-05-12 19:18:00,50.6,31.0,30.10,NNW,329,8.0,14.0,47,0.00,,,0.00,WUHU216DAVISVP2,2013-05-12 23:18:00,
2013-05-12 19:35:00,50.7,31.7,30.10,NW,309,10.0,16.0,48,0.00,,,0.00,WUHU216DAVISVP2,2013-05-12 23:35:00,
2013-05-12 19:40:00,50.6,30.5,30.10,NW,311,8.0,16.0,46,0.00,,,0.00,WUHU216DAVISVP2,2013-05-12 23:40:00,
2013-05-12 19:57:00,49.9,30.9,30.10,NW,321,9.0,17.0,48,0.00,,,0.00,WUHU216DAVISVP2,2013-05-12 23:57:00,
2013-05-12 20:02:00,49.8,30.8,30.10,WNW,289,9.0,17.0,48,0.00,,,0.00,WUHU216DAVISVP2,2013-05-13 00:02:00,
2013-05-12 20:07:00,49.7,30.7,30.10,WNW,294,12.0,15.0,48,0.00,,,0.00,WUHU216DAVISVP2,2013-05-13 00:07:00,
2013-05-12 20:19:00,48.9,31.0,30.10,WNW,299,8.0,15.0,50,0.00,,,0.00,WUHU216DAVISVP2,2013-05-13 00:19:00,
2013-05-12 20:24:00,48.6,30.8,30.10,WNW,297,7.0,14.0,50,0.00,,,0.00,WUHU216DAVISVP2,2013-05-13 00:24:00,
2013-05-12 20:29:00,48.3,31.5,30.10,NW,311,4.0,14.0,52,0.00,,,0.00,WUHU216DAVISVP2,2013-05-13 00:29:00,
2013-05-12 20:41:00,47.7,30.4,30.11,NNW,334,8.0,12.0,51,0.00,,,0.00,WUHU216DAVISVP2,2013-05-13 00:41:00,
2013-05-12 20:46:00,47.6,30.3,30.11,NW,321,5.0,12.0,51,0.00,,,0.00,WUHU216DAVISVP2,2013-05-13 00:46:00,
2013-05-12 21:03:00,46.7,31.0,30.11,NNW,333,6.0,9.0,54,0.00,,,0.00,WUHU216DAVISVP2,2013-05-13 01:03:00,
2013-05-12 21:08:00,46.5,30.8,30.11,NNW,327,3.0,10.0,54,0.00,,,0.00,WUHU216DAVISVP2,2013-05-13 01:08:00,
2013-05-12 21:25:00,46.3,30.6,30.12,NNW,331,3.0,9.0,54,0.00,,,0.00,WUHU216DAVISVP2,2013-05-13 01:25:00,
2013-05-12 21:30:00,46.0,30.8,30.12,NNW,333,3.0,9.0,55,0.00,,,0.00,WUHU216DAVISVP2,2013-05-13 01:30:00,
2013-05-12 21:35:00,45.7,31.4,30.13,North,349,4.0,8.0,57,0.00,,,0.00,WUHU216DAVISVP2,2013-05-13 01:35:00,
2013-05-12 21:47:00,44.9,31.8,30.13,North,356,3.0,5.0,60,0.00,,,0.00,WUHU216DAVISVP2,2013-05-13 01:47:00,
2013-05-12 21:52:00,44.6,31.6,30.13,North,359,4.0,6.0,60,0.00,,,0.00,WUHU216DAVISVP2,2013-05-13 01:52:00,
2013-05-12 22:09:00,44.1,32.0,30.14,NNW,340,3.0,5.0,62,0.00,,,0.00,WUHU216DAVISVP2,2013-05-13 02:09:00,
2013-05-12 22:14:00,43.9,31.7,30.15,NNW,347,3.0,5.0,62,0.00,,,0.00,WUHU216DAVISVP2,2013-05-13 02:14:00,
2013-05-12 22:19:00,43.8,31.6,30.15,NNW,341,2.0,5.0,62,0.00,,,0.00,WUHU216DAVISVP2,2013-05-13 02:19:00,
2013-05-12 22:31:00,43.6,31.4,30.15,North,4,0.0,4.0,62,0.00,,,0.00,WUHU216DAVISVP2,2013-05-13 02:31:00,
2013-05-12 22:36:00,43.3,31.5,30.15,NNE,19,0.0,3.0,63,0.00,,,0.00,WUHU216DAVISVP2,2013-05-13 02:36:00,
2013-05-12 22:41:00,43.2,31.9,30.15,NNE,19,1.0,2.0,64,0.00,,,0.00,WUHU216DAVISVP2,2013-05-13 02:41:00,
2013-05-12 22:53:00,42.6,31.7,30.15,NE,36,0.0,2.0,65,0.00,,,0.00,WUHU216DAVISVP2,2013-05-13 02:53:00,
2013-05-12 22:58:00,42.6,31.4,30.15,NE,36,0.0,2.0,64,0.00,,,0.00,WUHU216DAVISVP2,2013-05-13 02:58:00,
2013-05-12 23:03:00,42.6,31.7,30.15,NE,36,0.0,1.0,65,0.00,,,0.00,WUHU216DAVISVP2,2013-05-13 03:03:00,
2013-05-12 23:14:00,42.0,32.2,30.15,NE,36,0.0,1.0,68,0.00,,,0.00,WUHU216DAVISVP2,2013-05-13 03:14:00,
2013-05-12 23:19:00,41.5,32.5,30.15,NE,36,0.0,0.0,70,0.00,,,0.00,WUHU216DAVISVP2,2013-05-13 03:19:00,
2013-05-12 23:24:00,41.0,32.7,30.15,NE,36,0.0,0.0,72,0.00,,,0.00,WUHU216DAVISVP2,2013-05-13 03:24:00,
2013-05-12 23:36:00,40.0,32.8,30.15,NE,36,0.0,0.0,75,0.00,,,0.00,WUHU216DAVISVP2,2013-05-13 03:36:00,
2013-05-12 23:41:00,39.6,33.0,30.15,NE,36,0.0,0.0,77,0.00,,,0.00,WUHU216DAVISVP2,2013-05-13 03:41:00,
2013-05-12 23:46:00,39.3,32.7,30.15,NE,36,0.0,0.0,77,0.00,,,0.00,WUHU216DAVISVP2,2013-05-13 03:46:00,
2013-05-12 23:58:00,38.8,32.9,30.15,NE,36,0.0,0.0,79,0.00,,,0.00,WUHU216DAVISVP2,2013-05-13 03:58:00,